Home > Weather > Resolute Bay > Past weeks

Flag for Canada Past Weather in Resolute Bay, Nunavut, Canada — Yesterday and Last 2 Weeks

Now
21 °F

Passing clouds.


Feels Like: 9 °F
Forecast: 15 / 24 °F
Wind: 13 mph from North

Location: Resolute

Current Time: May 27, 2016 at 11:05:04 PM

Latest Report: May 27, 2016 at 10:00 PM


Visibility: 15 mi

Pressure: 30.09 "Hg

Humidity: 86%

Dew Point: 18 °F

Location of Resolute BayLocation

Past Weather in Resolute Bay — Graph

°F

Resolute Bay Temperature Yesterday

Maximum temperature yesterday: 25 °F (at 4:00 PM)
Minimum temperature yesterday: 19 °F (at 9:00 AM)
Average temperature yesterday: 22 °F

High & Low Weather Summary for the Past Weeks

 TemperatureHumidityPressure
High30 °F (May 24, 9:00 AM)100% (May 20, 1:00 AM)30.24 "Hg (May 20, 1:00 AM)
Low7 °F (May 13, 3:00 AM)64% (May 24, 9:00 AM)29.64 "Hg (May 21, 7:49 AM)
Average22 °F86%29.95 "Hg
* Reported May 12 9:00 PM — May 27 9:00 PM, Resolute Bay, Weather by CustomWeather, © 2016

Note: Actual official high and low records may vary slightly from our data, if they occured in-between our weather recording intervals... More about our weather records

Advertising

Resolute Bay Weather History for the Previous 24 Hours

Scroll right to see more
 ConditionsComfort  
Time TempWeatherWind HumidityBarometerVisibility
9:00 PM
Fri, May 27
23 °FPartly sunny.12 mph93%30.09 "Hg15 mi
8:00 PM25 °FPartly sunny.13 mph80%30.08 "Hg15 mi
7:00 PM25 °FPartly sunny.10 mph86%30.08 "Hg15 mi
6:00 PM25 °FPartly sunny.14 mph80%30.07 "Hg15 mi
5:00 PM25 °FPartly sunny.15 mph80%30.07 "Hg15 mi
4:00 PM25 °FOvercast.14 mph86%30.07 "Hg15 mi
3:00 PM27 °FOvercast.14 mph74%30.06 "Hg15 mi
2:00 PM27 °FPartly sunny.13 mph80%30.05 "Hg15 mi
1:00 PM25 °FPartly sunny.13 mph86%30.05 "Hg15 mi
12:00 PM25 °FLight snow. More clouds than sun.14 mph86%30.04 "Hg10 mi
11:00 AM25 °FLight snow. Overcast.14 mph80%30.04 "Hg10 mi
10:00 AM23 °FLight snow. Cloudy.12 mph93%30.04 "Hg9 mi
9:00 AM23 °FLight snow. Mostly cloudy.9 mph93%30.04 "Hg8 mi
8:00 AM21 °FLight snow. Mostly cloudy.9 mph93%30.04 "Hg6 mi
7:00 AM21 °FLight snow. Low clouds.9 mph93%30.04 "Hg6 mi
6:00 AM21 °FLight snow. More clouds than sun.12 mph86%30.04 "Hg8 mi
5:00 AM21 °FLight snow. Low clouds.10 mph86%30.03 "Hg6 mi
4:00 AM21 °FLight snow. Overcast.12 mph93%30.03 "Hg6 mi
3:00 AM21 °FLight snow. Overcast.13 mph93%30.02 "Hg10 mi
2:00 AM21 °FLight snow. Overcast.16 mph86%30.01 "Hg10 mi
1:00 AM21 °FLight snow. Overcast.17 mph86%30.01 "Hg10 mi
12:00 AM21 °FLight snow. Overcast.16 mph93%30.01 "Hg8 mi
11:00 PM
Thu, May 26
21 °FLight snow. Overcast.15 mph93%30.00 "Hg10 mi
Weather by CustomWeather, © 2016

See weather overviewHow to use our weather pages